Tracking 29069 objects as of 18-Jul-2024
HD Live streaming from Space Station
objects crossing your sky now

COSMOS 256

Track COSMOS 256 now!
10-day predictions
COSMOS 256 is classified as:


NORAD ID: 3576
Int'l Code: 1968-106A
Perigee: 1,178.2 km
Apogee: 1,229.6 km
Inclination: 74.0 °
Period: 109.4 minutes
Semi major axis: 7574 km
RCS: 3.2431 m2 (large)
Launch date: November 30, 1968
Source: Commonwealth of Independent States (former USSR) (CIS)
Launch site: PLESETSK MISSILE AND SPACE COMPLEX (PKMTR)
Your satellite tracking list
Your tracking list is empty




NASA's NSSDC Master Catalog

Two Line Element Set (TLE):
1 03576U 68106A   24199.98176972 -.00000204  00000-0 -47949-3 0  9990
2 03576  74.0487  59.2422 0033908 203.6220 266.1482 13.16851062673654
Source of the keplerian elements: AFSPC